Tracking 23610 objects as of 20-Sep-2021
HD Live streaming from Space Station
objects crossing your sky now

STARLINK-1119

Track STARLINK-1119 now!
10-day predictions
STARLINK-1119 is classified as:


NORAD ID: 44928
Int'l Code: 2020-001Q
Perigee: 552.8 km
Apogee: 556.0 km
Inclination: 53.1 °
Period: 95.6 minutes
Semi major axis: 6925 km
RCS: Unknown
Launch date: January 7, 2020
Source: United States (US)
Launch site: AIR FORCE EASTERN TEST RANGE (AFETR)
aabbcc
Your satellite tracking list
Your tracking list is empty




NASA's NSSDC Master Catalog

Two Line Element Set (TLE):
1 44928U 20001Q   21262.90277165 -.00000814  00000-0 -35766-4 0  9996
2 44928  53.0546 112.0040 0002316  82.3855 277.7397 15.06392163 93902
Source of the keplerian elements: AFSPC